www.pogodaiklimat.ru

Погода и климат >> Архив погоды >> Россия >> Курганская область >> Шумиха


ПОГОДА в Шумихе

  • Прогноз погоды в Шумихе
  • Монитор погоды в Шумихе

АРХИВ ПОГОДЫ в Шумихе

Время (UTC), дата Ветер
(напр.,м/с)
 
Видим.   Явления Облачность Т
(С)
Тd
(С)
f
(%)
Тe
(С)
Тes
(С)
Комфортность P
(гПа)
Po
(гПа)
Тmin
(С)
Tmax
(С)
R
(мм)
R24
(мм)
S
(см)
06 13.05 В 3 20 км 9/0
[Ac trans]
+18.1 +4.3 40 +18 +23 1023.5 1002.5
09 13.05 В 2 20 км 9/0
[Ac trans]
+23.0 +5.0 31 +23 +29 комфорт 1022.5 1001.9
12 13.05 ЮВ 3 20 км 4/0
[Ci sp]
+24.1 +4.9 29 +24 +28 комфорт 1020.7 1000.1
15 13.05 ЮВ 1 20 км 9/4 600 м
[Cb cap Ci sp]
+21.4 +7.2 40 +22 +22 комфорт 1019.3 998.6 +24.4
18 13.05 ЮВ 1 20 км 5/3 600 м
[Cb cap Ci sp]
+13.4 +9.9 79 +14 +14 1018.7 997.5
21 13.05 ЮЗ 2 20 км 3/0
[Ac trans]
+13.7 +7.2 65 +13 +13 1016.6 995.4
00 14.05 ЮЗ 3 20 км 9/0
[Ac lent Ci sp]
+12.7 +8.2 74 +11 +11 1014.3 993.2
03 14.05 С 3 20 км 9/0
[Ac trans Ci sp]
+17.3 +8.5 56 +17 +20 1015.0 994.1 +11.4
06 14.05 СВ 5
{11}
20 км 10/10 600 м
[Sc]
+10.9 +6.3 73 +8 +8 1019.1 997.7 +10.6
09 14.05 СВ 6-11
{11}
20 км 10/10 600 м
[Sc]
+10.6 +3.8 63 +8 +8 1021.4 999.9
12 14.05 СВ 6-10
{11}
20 км 8/5 600 м
[Sc Ac trans]
+9.9 +2.4 60 +7 +8 1022.2 1000.6
15 14.05 СВ 3
{10}
20 км 3/3 600 м
[Sc]
+11.9 -1.2 40 +11 +11 1022.5 1001.0 +18.4
18 14.05 В 4 20 км 3/0
[Ac trans]
+7.5 -4.2 43 +5 +5 1025.3 1003.5
21 14.05 В 3 20 км 4/0
[Ci sp]
+3.8 -5.8 49 +1 +1 1026.9 1004.7
00 15.05 В 2 20 км 5/0
[Ci sp]
+0.9 -6.0 60 -2 -2 1028.5 1006.0
03 15.05 ЮВ 5 20 км 9/0
[Ci sp]
+4.8 -6.6 43 +1 +3 1029.6 1007.4 +0.8
06 15.05 В 2 20 км 9/0
[Ci sp]
+8.8 -7.8 30 +8 +18 опасность
простуды
1029.3 1007.4
09 15.05 ЮВ 3 20 км 8/0
[Ci sp]
+11.5 -9.2 22 +10 +20 опасность
простуды
1028.2 1006.6
12 15.05 ЮВ 2 20 км 6/0
[Ci sp]
+13.2 -10.0 19 +13 +18 1027.1 1005.6
15 15.05 В 1 20 км 6/0
[Ci sp]
+11.6 -9.7 21 +12 +12 1026.5 1005.0 +13.5
18 15.05 ЮВ 2 20 км 6/0
[Ci sp]
+5.9 -7.6 37 +4 +4 1027.0 1005.0
21 15.05 ЮВ 2 20 км 8/0
[Ci sp]
+2.9 -5.8 53 +1 +1 1027.5 1005.2
00 16.05 Ю 2 20 км 8/0
[Ci sp]
+2.6 -7.1 49 0 0 1027.4 1005.2
03 16.05 Ю 4 20 км 8/0
[Ac trans Ci sp]
+9.4 -7.7 29 +7 +10 1026.6 1004.8 +1.1
06 16.05 Ю 5 20 км 9/0
[Ac trans Ci sp]
+12.7 -9.3 21 +11 +16 1025.5 1004.0
09 16.05 Ю 5 20 км 9/0
[Ci sp]
+16.0 -10.6 15 +15 +21 1023.1 1001.9
12 16.05 ЮЗ 5
{10}
20 км 6/0
[Ac trans Ci sp]
+18.5 -10.7 13 +18 +20 1020.4 999.4
15 16.05 Ю 3 20 км 9/4 600 м
[Sc Ac trans Ci sp]
+16.6 -9.7 16 +17 +17 1018.3 997.2 +18.5
18 16.05 Ю 3 20 км 9/0
[Ac trans]
+13.0 -7.5 23 +12 +12 1016.6 995.3
21 16.05 Ю 6-10
{10}
20 км 9/3 600 м
[Cb cap Ac trans]
+13.4 -7.2 23 +12 +12 1013.8 992.6
00 17.05 Ю 6-10
{11}
20 км 10/10 600 м
[Sc]
+12.9 -5.2 28 +11 +11 1011.5 990.3
03 17.05 Ю 5
{10}
20 км в посл. час дождь 9/9 600 м
[Sc]
+12.3 -0.6 41 +10 +11 1008.4 987.2 +9.9 0.3
06 17.05 Ю 6-10
{13}
4000 м слаб. дождь 10/10 600 м
[Sc]
+10.3 +6.9 79 +7 +7 1005.7 984.5
09 17.05 ЮЗ 6-10
{14}
20 км {дождь} 10/10 600 м
[Sc]
+14.8 +9.2 69 +13 +13 1003.9 983.1
12 17.05 СЗ 5-11
{11}
20 км {дождь} 10/10 600 м
[Cb cap]
+13.8 +8.8 72 +12 +12 1004.0 983.1
15 17.05 СЗ 4
{12}
20 км {ливн. осадки} 10/10 600 м
[Cb cap]
+9.4 +7.2 86 +6 +6 1006.3 985.1 +14.9 0.5
18 17.05 СЗ 5
{13}
20 км в посл. час дождь {ливн. осадки} 10/10 600 м
[Sc]
+6.1 +3.0 80 +2 +2 1008.7 987.1
21 17.05 СЗ 3 20 км 10/10 600 м
[Sc]
+5.6 -0.9 63 +3 +3 1007.9 986.3
00 18.05 СЗ 2 20 км 9/9 600 м
[Sc]
+4.6 -2.3 61 +2 +2 1008.1 986.4
03 18.05 СЗ 2 20 км 4/0
[Ci sp]
+7.0 -2.7 50 +5 +10 1007.3 985.8 +3.8 0.3
06 18.05 З 3 20 км 8/8 1000 м
[Cu med, cong]
+11.2 -4.0 34 +10 +12 1004.8 983.7
09 18.05 З 5 20 км 9/9 600 м
[Cb cap]
+12.0 -2.3 37 +10 +11 1003.6 982.5
12 18.05 З 4
{10}
20 км {ливн. осадки} 9/8 600 м
[Cb cap Ac trans]
+12.1 -0.0 43 +10 +11 1002.9 981.8
15 18.05 СЗ 4
{12}
4000 м слаб. ливневой дождь 9/9 600 м
[Cb cap]
+8.3 +2.4 66 +5 +5 1002.5 981.2 +13.7
18 18.05 ЮЗ 2 20 км {ливн. осадки} 6/4 600 м
[Cb cap Ac trans]
+5.3 +2.5 82 +3 +3 1001.8 980.3
21 18.05 ЮЗ 2 20 км 3/0
[Ac trans]
+3.4 +0.8 83 +1 +1 1000.6 979.0
00 19.05 З 3 20 км 9/9 600 м
[Sc]
+3.3 +1.4 87 -1 -1 1000.0 978.4
03 19.05 З 3 20 км 10/10 600 м
[Sc]
+5.0 +1.7 79 +2 +2 999.7 978.2 +2.3
06 19.05 З 4 20 км в посл. час дождь 10/10 600 м
[Sc]
+4.8 +2.0 82 +1 +1 1000.2 978.7
09 19.05 З 6-14
{14}
20 км {дождь} 9/9 600 м
[Cb cap]
+6.8 -0.6 59 +3 +3 1001.2 979.8
12 19.05 СЗ 3
{14}
20 км в посл. час ливневой дождь 9/8 600 м
[Cb cap Ci sp]
+6.7 +0.9 66 +4 +5 1003.0 981.5
15 19.05 З 3
{12}
20 км 5/3 600 м
[Cb cap Ci sp]
+7.0 -1.9 53 +5 +5 1003.9 982.4 +9.1 1
18 19.05 З 2 20 км 3/3 600 м
[Sc]
+2.8 -1.8 72 0 0 1005.3 983.5
21 19.05 ЮЗ 3 20 км ясно +0.6 -2.2 81 -4 -4 1005.8 983.8
00 20.05 З 2 20 км ясно -0.1 -1.9 88 -4 -4 1006.2 984.2
03 20.05 З 2 20 км 3/0
[Ci sp]
+5.0 +0.2 71 +3 +7 1005.8 984.2 -0.2

 

Местоположение метеостанции Шумиха (Курганская область, Россия): широта 55.23 долгота 63.32 высота над уровнем моря 178 м.

В архиве по умолчанию представлена погода в Шумихе за последнюю неделю. Архивные данные за месяц целиком и за предыдущие месяцы, начиная с января 2011 года, Вы можете получить, выбрав интересующий диапазон дат из раскрывающегося списка и нажав кнопку "Ввод!".


*Определитесь, кто Вы:
робот инопланетянин человек

Внимание! Время в таблицах - всемирное. Для получения местного времени необходимо прибавить поправку, которая равна 5 ч.

Смотрите также архив погоды в соседних городах и на ближайших метеорологических станциях:

Погода в Куртамыше (Курганская область, Россия) (79 км)
Погода в Целинном (Курганская область, Россия) (84 км)
Погода в Бродокалмаке (Челябинская область, Россия) (88 км)
Погода в Шадринске (Курганская область, Россия) (96 км)
Погода в Октябрьском (Челябинская область, Россия) (98 км)
Погода в Далматово (Курганская область, Россия) (118 км)
Погода в Челябинске (Челябинская область, Россия) (129 км)
Погода в Звериноголовском (Курганская область, Россия) (130 км)
Погода в Кургане (Курганская область, Россия) (134 км)
Погода в Южноуральске (Челябинская область, Россия) (154 км)

Пояснения к столбцам:

Ветер - указаны скорость ветра в м/с - средняя за 10 мин, порывы в срок и между сроками (в фигурных скобках) и направление, откуда дует ветер: С - северный, СВ - северо-восточный, В - восточный, ЮВ - юго-восточный, Ю - южный, ЮЗ - юго-западный, З - западный, СЗ - северо-западный.
Видимость - горизонтальная дальность видимости в метрах или километрах. При видимости от 1 до 10 км при отсутствии осадков обычно наблюдается дымка, при ухудшении видимости до 1 км и менее - туман. В сухую погоду видимость может ухудшаться дымом, пылью или мглою.
Явления - указаны атмосферные явления, наблюдавшиеся в срок или в последний час перед сроком; фигурными скобками обозначены явления, наблюдавшиеся между сроками (за 1-3 часа до срока); квадратными скобками обозначены град или гололедные отложения с указанием их диаметра в мм.
Облачность - указаны через наклонную черту общая и нижняя облачность в баллах и высота нижней границы облаков в метрах; квадратными скобками обозначены формы облаков: Ci - перистые, Cs - перисто-слоистые, Cc - перисто-кучевые, Ac - высококучевые, As - высокослоистые, Sc - слоисто-кучевые, Ns - слоисто-дождевые, Cu - кучевые, Cb - кучево-дождевые. Подробнее классификацию облаков см. в Атласе облаков (PDF).
T - Температура воздуха - температура, измеренная на высоте 2 м над землей.
Td - Температура точки росы - температура, при понижении до которой содержащийся в воздухе водяной пар достигнет насыщения.
f - Относительная влажность воздуха - влажноcть воздуха, измеренная на высоте 2 м над землей.
Te - Эффективная температура - температура, которую ощущает одетый по сезону человек в тени. Характеристика душности погоды. При расчете учитывается влияние влажности воздуха и скорости ветра на теплоощущения человека.
Tes - Эффективная температура на солнце - температура, которую ощущает человек, с поправкой на солнечный нагрев. Характеристика знойности погоды. Зависит от высоты солнца над горизонтом, облачности и скорости ветра. Ночью, в пасмурную погоду, а также при ветре 12 м/с и более поправка равна нулю.
P - Атмосферное давление - приведенное к уровню моря атмосферное давление.
Po - Атмосферное давление - измеренное на уровне метеостанции атмосферное давление.
Tmin - Минимальная температура - минимум температуры воздуха на высоте 2 м над землей.
Tmax - Максимальная температура - максимум температуры воздуха на высоте 2 м над землей.
R - Количество осадков - Количество выпавших осадков за период времени, мм. При наведении курсора мыши на число - период времени, за который выпало указанное количество осадков.
R24 - Количество осадков - Количество выпавших осадков за 24 часа, мм.
S - Снежный покров - Высота снежного покрова, см. При наведении курсора мыши на число - состояние снежного покрова и степень покрытия местности в баллах.